Weather History for Dallas Love, TX

Change the Weather History Date:

Saturday, January 19, 2013

  Actual Average Record
Temperature  
Mean Temperature 56 °F -  
Max Temperature 71 °F 55 °F 73 °F (1999)
Min Temperature 42 °F 37 °F 26 °F (2008)
Degree Days  
Heating Degree Days 8    
Growing Degree Days 6 (Base 50)    
Moisture  
Dew Point 40 °F    
Average Humidity 56    
Maximum Humidity 79    
Minimum Humidity 34    
Precipitation  
Precipitation 0.00 in - - ()
Sea Level Pressure  
Sea Level Pressure 30.21 in    
Wind  
Wind Speed 8 mph (South)    
Max Wind Speed 10 mph    
Max Gust Speed 20 mph    
Visibility 10 miles    
Events      
Averages and records for this station are not official NWS values.
T = Trace of Precipitation, MM = Missing Value Source: NWS Daily Summary

Daily Weather History Graph

Daily Weather History Graph

Search for Another Location

Airport:

Trip Planner

Search our weather history database for the weather conditions in past years. The results will help you decide how hot, cold, wet, or windy it might be!

Date:

Astronomy

Jan. 19, 2013 Rise Set
Actual Time 7:28 AM CST 5:47 PM CST
Civil Twilight 7:02 AM CST 6:14 PM CST
Nautical Twilight 6:32 AM CST 6:44 PM CST
Astronomical Twilight 6:02 AM CST 7:14 PM CST
Moon 12:11 PM CST 1:09 AM CST
Length of Visible Light 11h 12m
Length of Day
10h 18m
First Quarter, 57% of the Moon is Illuminated
Jan 19
First Quarter
Jan 26
Full
Feb 3
Last Quarter
Feb 10
New
Feb 17
First Quarter

Hourly Weather History & Observations

Time (CST) Temp. Windchill Dew Point Humidity Pressure Visibility Wind Dir Wind Speed Gust Speed Precip Events Conditions
12:53 AM 48.0 °F - 33.1 °F 56% 30.26 in 10.0 mi South 9.2 mph - N/A   Partly Cloudy
1:53 AM 46.0 °F 41.9 °F 33.1 °F 61% 30.26 in 10.0 mi South 8.1 mph - N/A   Partly Cloudy
2:53 AM 45.0 °F 41.2 °F 33.1 °F 63% 30.25 in 10.0 mi South 6.9 mph - N/A   Scattered Clouds
3:53 AM 46.0 °F 42.5 °F 34.0 °F 63% 30.24 in 10.0 mi SSE 6.9 mph - N/A   Scattered Clouds
4:53 AM 43.0 °F 38.2 °F 34.0 °F 71% 30.24 in 10.0 mi SSE 8.1 mph - N/A   Partly Cloudy
5:53 AM 45.0 °F 40.6 °F 37.0 °F 74% 30.24 in 10.0 mi SSE 8.1 mph - N/A   Partly Cloudy
6:53 AM 42.1 °F 37.7 °F 36.0 °F 79% 30.24 in 10.0 mi SSE 6.9 mph - N/A   Scattered Clouds
7:53 AM 55.9 °F - 37.9 °F 51% 30.25 in 10.0 mi SSE 9.2 mph - N/A   Scattered Clouds
8:53 AM 61.0 °F - 39.0 °F 44% 30.25 in 10.0 mi SSE 9.2 mph - N/A   Mostly Cloudy
9:53 AM 54.1 °F - 41.7 °F 63% 30.27 in 10.0 mi South 8.1 mph - N/A   Mostly Cloudy
10:53 AM 55.9 °F - 42.1 °F 60% 30.26 in 10.0 mi SSW 5.8 mph - N/A   Mostly Cloudy
11:53 AM 61.3 °F - 42.1 °F 49% 30.22 in 10.0 mi SW 8.1 mph - N/A   Mostly Cloudy
12:53 PM 65.1 °F - 41.0 °F 41% 30.18 in 10.0 mi SW 9.2 mph - N/A   Mostly Cloudy
1:53 PM 66.9 °F - 41.0 °F 39% 30.14 in 10.0 mi SSW 10.4 mph 19.6 mph N/A   Mostly Cloudy
2:53 PM 69.1 °F - 41.0 °F 36% 30.14 in 10.0 mi SSW 8.1 mph - N/A   Mostly Cloudy
3:53 PM 71.1 °F - 41.0 °F 34% 30.14 in 10.0 mi SW 8.1 mph - N/A   Mostly Cloudy
4:53 PM 68.0 °F - 43.0 °F 40% 30.14 in 10.0 mi South 10.4 mph - N/A   Mostly Cloudy
5:53 PM 63.0 °F - 43.0 °F 48% 30.15 in 10.0 mi SSE 8.1 mph - N/A   Mostly Cloudy
6:53 PM 59.7 °F - 44.1 °F 56% 30.17 in 10.0 mi SSE 6.9 mph - N/A   Scattered Clouds
7:53 PM 57.4 °F - 43.0 °F 59% 30.18 in 10.0 mi SSE 6.9 mph - N/A   Clear
8:53 PM 55.2 °F - 43.0 °F 63% 30.19 in 10.0 mi SE 4.6 mph - N/A   Clear
9:53 PM 53.4 °F - 43.0 °F 68% 30.20 in 10.0 mi SE 5.8 mph - N/A   Clear
10:53 PM 52.0 °F - 43.0 °F 71% 30.21 in 10.0 mi SE 5.8 mph - N/A   Clear
11:53 PM 53.6 °F - 42.1 °F 65% 30.21 in 10.0 mi South 5.8 mph - N/A   Clear